Location: Creston
(40.9870°N, 81.8938°W)
Time: 07:42:25
(UTC+00:00)

Cosmos 2082 - Pass Details

Date: 29 October 2020
Orbit: 832 x 857 km, 71.0° (Epoch: 26 November)

Event Time Altitude Azimuth Distance (km) Brightness Sun altitude
Rises 23:17:12 0° 343° (NNW) 3,435 7.0 -10.1°
Reaches altitude 10° 23:19:52 10° 352° (N) 2,497 6.2 -10.6°
Maximum altitude 23:25:09 37° 58° (ENE) 1,320 4.3 -11.6°
Drops below altitude 10° 23:30:23 10° 125° (SE) 2,483 5.7 -12.6°
Enters shadow 23:31:45 - 130° (SE) 2,955 6.1 -12.9°
